[[{"header":{"parameterUnit":"m.s-1","parameterCategory":1,"la1":30.2992,"la2":30.254,"lo1":-89.0895,"lo2":-89.0443,"dy":0.0025,"dx":0.0025,"nx":19,"ny":19,"refTime":"2026-05-17T21:00:00:Z","depth":0,"parameterNumber":2,"parameterNumberName":"U-component_of_WINDS"},"data":[0,0,0,-5.8709,-5.8711,-5.8792,-5.8792,-5.8914,-5.8916,0,0,0,0,0,0,0,0,0,0,0,-5.8698,-5.8699,-5.8709,-5.8711,-5.8792,-5.8792,-5.8914,-5.8916,0,0,0,0,0,0,0,0,0,0,0,-5.8697,-5.8699,-5.87,-5.8711,-5.8792,-5.8792,-5.8914,-5.8846,0,0,0,0,0,0,0,0,0,0,-5.8763,-5.8766,-5.8698,-5.87,-5.8712,-5.8792,-5.8792,-5.8842,-5.885,-5.8886,0,-5.8923,0,-5.8922,-5.8925,-5.8926,0,0,0,-5.8701,-5.876,-5.877,-5.8701,-5.8713,-5.8792,-5.8752,-5.8846,-5.8855,-5.8897,-5.8925,-5.8929,-5.8924,-5.8926,-5.8927,-5.9172,-5.9174,0,0,-5.8696,-5.8719,-5.8764,-5.8777,-5.8767,-5.875,-5.8755,-5.8851,-5.8883,-5.8925,-5.8931,-5.8926,-5.8927,-5.8928,-5.9171,-5.9173,0,0,0,-5.869,-5.8716,-5.8724,-5.8772,-5.8786,-5.8753,-5.8759,-5.8878,-5.8879,-5.8932,-5.8927,-5.8928,-5.893,-5.9169,-5.9172,-5.9272,0,0,0,-5.8687,-5.8713,-5.8722,-5.8737,-5.8784,-5.8833,-5.8784,-5.8872,-5.8883,-5.8927,-5.8928,-5.8931,-5.9167,-5.917,-5.9265,-5.9315,0,0,0,-5.8688,-5.8712,-5.8729,-5.8738,-5.8774,-5.8831,-5.8837,-5.8874,-5.888,-5.8926,-5.8931,-5.9166,-5.917,-5.9259,-5.9305,-5.9384,0,0,0,-5.8695,-5.8818,-5.8731,-5.8866,-5.8773,-5.8895,-5.8836,-5.8925,-5.8977,-5.8929,-5.9167,-5.9171,-5.9258,-5.9299,-5.9378,-5.9452,-5.9486,0,0,-5.8862,-5.8839,-5.8916,-5.8841,-5.8983,-5.888,-5.9037,-5.9062,-5.9046,-5.9131,-5.9136,-5.9267,-5.9304,-5.9382,-5.9675,-5.9702,0,0,0,-5.8977,-5.9032,-5.9065,-5.9116,-5.914,-5.9162,-5.9162,-5.9171,-5.9243,-5.9095,-5.9318,-5.9339,-5.9384,-5.9418,-5.9442,-5.9477,-5.9189,-5.9189,-5.9188,-5.9243,-5.9216,-5.9342,-5.9326,-5.9376,-5.9374,-5.9411,-5.9423,-5.9381,-5.9435,-5.9458,-5.9639,-5.9681,-5.9698,-5.9735,-5.9499,-5.9499,-5.9499,-5.95,-5.9483,-5.9556,-5.9499,-5.96,-5.9571,-5.9655,-5.9658,-5.9626,-5.9699,-5.9619,-5.9658,-5.957,-5.9729,-5.976,-5.9507,-5.9506,-5.9505,-5.9504,-5.9504,-5.9651,-5.9681,-5.9692,-5.9762,-5.9819,-5.9798,-5.987,-5.9842,-5.9815,-5.9853,-5.9873,-5.9871,-5.9863,-5.9866,-5.9866,-5.9867,-5.9867,-5.9868,-5.9868,-5.982,-5.9829,-5.9894,-5.993,-5.9958,-5.9992,-5.9993,-6.0019,-6.004,-6.0013,-6.0013,-5.9964,-5.9751,-5.9695,-5.9878,-5.9876,-5.9875,-5.9874,-5.9873,-6.0067,-6.0007,-6.0108,-6.0136,-6.0175,-6.0232,-6.0196,-6.0252,-6.027,-6.0306,-6.025,-6.0098,-6.0071,-6.0052,-6.0006,-6.0257,-6.0257,-6.0257,-6.0257,-6.0206,-6.0191,-6.0287,-6.0334,-6.0377,-6.0354,-6.0466,-6.0468,-6.046,-6.0469,-6.0429,-6.0367,-6.0349,-6.0332,-6.0308,-6.0264,-6.0575,-6.0576,-6.0576,-6.0355,-6.0343,-6.0444,-6.0437,-6.0465,-6.049,-6.0593,-6.0648,-6.0627,-6.0588,-6.0474,-6.0461,-6.036,-6.0329,-6.0284,-6.0247,-6.0166,0,0]},{"header":{"parameterUnit":"m.s-1","parameterCategory":1,"la1":30.2992,"la2":30.254,"lo1":-89.0895,"lo2":-89.0443,"dy":0.0025,"dx":0.0025,"nx":19,"ny":19,"refTime":"2026-05-17T21:00:00:Z","depth":0,"parameterNumber":3,"parameterNumberName":"V-component_of_WINDS"},"data":[0,0,0,3.6295,3.6296,3.6372,3.6372,3.6446,3.6446,0,0,0,0,0,0,0,0,0,0,0,3.6262,3.6262,3.6295,3.6296,3.6372,3.6372,3.6445,3.6446,0,0,0,0,0,0,0,0,0,0,0,3.6262,3.6262,3.6262,3.6296,3.6371,3.6372,3.6445,3.6396,0,0,0,0,0,0,0,0,0,0,3.6326,3.6286,3.6262,3.6262,3.6297,3.6371,3.6372,3.6394,3.6399,3.6403,0,3.6406,0,3.6427,3.645,3.645,0,0,0,3.6303,3.6282,3.6312,3.6262,3.6297,3.6371,3.634,3.6397,3.6403,3.6409,3.6407,3.6411,3.6429,3.645,3.645,3.6457,3.6456,0,0,3.6299,3.6269,3.6308,3.6315,3.6306,3.6337,3.6342,3.6401,3.6395,3.6408,3.6413,3.643,3.6451,3.6451,3.6457,3.6456,0,0,0,3.6282,3.6265,3.6295,3.6312,3.6327,3.6339,3.6345,3.6393,3.6405,3.6414,3.6431,3.6451,3.6452,3.6457,3.6457,3.6414,0,0,0,3.628,3.6256,3.6293,3.6275,3.6326,3.6362,3.6335,3.6401,3.6408,3.643,3.6451,3.6452,3.6458,3.6457,3.6416,3.6399,0,0,0,3.626,3.6254,3.6261,3.6273,3.6305,3.6361,3.6377,3.6403,3.6418,3.645,3.6452,3.6458,3.6457,3.6418,3.6402,3.6393,0,0,0,3.6229,3.6221,3.626,3.6257,3.6304,3.6335,3.6377,3.6401,3.6423,3.6451,3.6458,3.6457,3.6419,3.6404,3.6395,3.638,3.6372,0,0,3.6202,3.6216,3.6217,3.6254,3.6272,3.6326,3.6336,3.6383,3.6412,3.6439,3.644,3.6416,3.6402,3.6393,3.6332,3.6324,0,0,0,3.6198,3.6198,3.6209,3.623,3.6268,3.6298,3.6347,3.6364,3.639,3.6421,3.641,3.6403,3.6399,3.6394,3.6388,3.6386,3.6453,3.6453,3.6453,3.6115,3.6154,3.6158,3.6206,3.6225,3.6277,3.6296,3.6327,3.6359,3.6356,3.6365,3.6323,3.6315,3.6311,3.6309,3.636,3.636,3.6359,3.6359,3.6078,3.6084,3.6129,3.6149,3.6189,3.6204,3.6252,3.6275,3.6293,3.6319,3.6318,3.6344,3.6302,3.6302,3.6356,3.6357,3.6357,3.6358,3.6358,3.6029,3.6039,3.6062,3.6097,3.6119,3.6166,3.6183,3.6218,3.6251,3.625,3.6263,3.6263,3.6269,3.6253,3.6253,3.6253,3.6253,3.6253,3.6253,3.597,3.5997,3.6008,3.6048,3.6066,3.6094,3.6144,3.6162,3.6191,3.6215,3.6215,3.6247,3.6291,3.6302,3.6251,3.6251,3.6251,3.6251,3.6251,3.5919,3.5937,3.5954,3.5973,3.6021,3.604,3.6085,3.6118,3.6138,3.6144,3.6176,3.6203,3.622,3.6225,3.6234,3.6168,3.6168,3.6168,3.6168,3.5879,3.5891,3.5918,3.5945,3.5975,3.6018,3.6033,3.6071,3.6112,3.6126,3.6141,3.6155,3.6159,3.6173,3.618,3.6189,3.6113,3.6113,3.6113,3.5851,3.5868,3.5876,3.592,3.596,3.5993,3.6009,3.6035,3.6085,3.6112,3.6138,3.614,3.6164,3.617,3.6198,3.6207,3.6224,0,0]}]]